Tracking 32579 objects as of 16-Dec-2025
HD Live streaming from Space Station
objects crossing your sky now

PALAPA B4

Track PALAPA B4 now!
PALAPA B4 is classified as:


NORAD ID: 21964
Int'l Code: 1992-027A
Perigee: 35,879.6 km
Apogee: 35,899.7 km
Inclination: 13.1 °
Period: 1,441.0 minutes
Semi major axis: 42260 km
RCS: 12.5892 m2 (large)
Launch date: May 14, 1992
Source: Indonesia (INDO)
Launch site: AIR FORCE EASTERN TEST RANGE (AFETR)

Palapa B-4 was an Indonesian communications spacecraft launched by a Delta rocket.
Your satellite tracking list
Your tracking list is empty




NASA's NSSDC Master Catalog

Two Line Element Set (TLE):
1 21964U 92027A   25349.10888462 -.00000050  00000-0  00000-0 0  9998
2 21964  13.0537  18.6329 0002378 273.4184  85.7830  0.99930481 45341
Source of the keplerian elements: AFSPC